Weather History for KOCH - December, 2012

Change the Weather History Date:

Thursday, December 20, 2012

  Actual Average (KLFK) Record (KLFK)
Temperature  
Mean Temperature 50 °F 49 °F  
Max Temperature 71 °F 60 °F 79 °F (1949)
Min Temperature 28 °F 39 °F 16 °F (1996)
Degree Days  
Heating Degree Days 16 16  
Month to date heating degree days 290  
Since 1 July heating degree days 597  
Cooling Degree Days 0 0  
Month to date cooling degree days 4  
Year to date cooling degree days 2587  
Moisture  
Dew Point 24 °F    
Average Humidity 45    
Maximum Humidity 86    
Minimum Humidity 21    
Precipitation  
Precipitation 0.00 in 0.14 in 1.82 in (2011)
Month to date precipitation 2.95  
Year to date precipitation 47.46  
Snow  
Snow 0.00 in - - ()
Month to date snowfall  
Since 1 July snowfall  
Snow Depth -    
Sea Level Pressure  
Sea Level Pressure 30.21 in    
Wind  
Wind Speed 17 mph (NW)    
Max Wind Speed 30 mph    
Max Gust Speed 54 mph    
Visibility 10 miles    
Events      
T = Trace of Precipitation, MM = Missing Value Source: NWS Daily Summary

Daily Weather History Graph

Daily Weather History Graph

Search for Another Location

Airport or City:

Trip Planner

Search our weather history database for the weather conditions in past years. The results will help you decide how hot, cold, wet, or windy it might be!

Date:

Astronomy

Dec. 20, 2012 Rise Set
Actual Time 7:14 AM CST 5:19 PM CST
Civil Twilight 6:47 AM CST 5:46 PM CST
Nautical Twilight 6:16 AM CST 6:16 PM CST
Astronomical Twilight 5:47 AM CST 6:46 PM CST
Moon 12:20 PM CST (12/20) 12:21 AM CST (12/20)
Length of Visible Light 10h 59m
Length of Day
10h 05m
First Quarter, 55% of the Moon is Illuminated
Dec 20
First Quarter
Dec 28
Full
Jan 4
Last Quarter
Jan 11
New
Jan 18
First Quarter

Hourly Weather History & Observations

Time (CST) Temp. Windchill Dew Point Humidity Pressure Visibility Wind Dir Wind Speed Gust Speed Precip Events Conditions
12:15 AM 71.6 °F - 64.4 °F 78% 29.73 in 10.0 mi SSW 13.8 mph 21.9 mph N/A   Overcast
12:55 AM 68.0 °F - 59.0 °F 73% 29.80 in 6.0 mi NW 28.8 mph 54.1 mph N/A   Overcast
2:15 AM - - - N/A% 29.85 in - NW 13.8 mph - N/A   Unknown
2:35 AM 57.2 °F - 37.4 °F 48% 29.87 in 3.0 mi NW 19.6 mph 25.3 mph N/A   Clear
2:55 AM 57.2 °F - 33.8 °F 41% 29.87 in 5.0 mi WNW 15.0 mph 21.9 mph N/A   Clear
3:15 AM 57.2 °F - 30.2 °F 36% 29.89 in 6.0 mi WNW 18.4 mph 26.5 mph N/A   Clear
3:35 AM 57.2 °F - 30.2 °F 36% 29.90 in 8.0 mi NW 10.4 mph - N/A   Clear
3:55 AM 55.4 °F - 28.4 °F 36% 29.93 in 10.0 mi NW 27.6 mph 32.2 mph N/A   Clear
4:15 AM 53.6 °F - 30.2 °F 41% 29.95 in 10.0 mi NW 21.9 mph 33.4 mph N/A   Clear
4:35 AM 51.8 °F - 26.6 °F 38% 29.98 in 10.0 mi NW 23.0 mph 33.4 mph N/A   Clear
4:55 AM 48.2 °F - 26.6 °F 43% 29.99 in 10.0 mi NW 23.0 mph 40.3 mph N/A   Clear
5:15 AM 46.4 °F 38.5 °F 26.6 °F 46% 30.02 in 10.0 mi NW 21.9 mph 27.6 mph N/A   Clear
5:35 AM 44.6 °F 34.9 °F 24.8 °F 46% 30.04 in 10.0 mi NW 28.8 mph 36.8 mph N/A   Clear
5:55 AM 44.6 °F 35.7 °F 26.6 °F 49% 30.06 in 10.0 mi NW 24.2 mph 34.5 mph N/A   Clear
6:15 AM 42.8 °F 32.3 °F 26.6 °F 53% 30.09 in 10.0 mi NW 29.9 mph 40.3 mph N/A   Clear
6:35 AM 42.8 °F 34.8 °F 24.8 °F 49% 30.10 in 10.0 mi NW 17.3 mph 29.9 mph N/A   Clear
6:55 AM 41.0 °F 31.9 °F 26.6 °F 57% 30.12 in 10.0 mi NW 19.6 mph 26.5 mph N/A   Clear
7:15 AM 41.0 °F 33.1 °F 26.6 °F 57% 30.13 in 10.0 mi NW 15.0 mph 26.5 mph N/A   Clear
7:35 AM 41.0 °F 33.5 °F 24.8 °F 53% 30.14 in 10.0 mi NW 13.8 mph 21.9 mph N/A   Clear
7:55 AM 41.0 °F 32.5 °F 26.6 °F 57% 30.15 in 10.0 mi NW 17.3 mph 23.0 mph N/A   Clear
8:15 AM 42.8 °F 35.4 °F 26.6 °F 53% 30.16 in 10.0 mi NW 15.0 mph 20.7 mph N/A   Clear
8:35 AM 42.8 °F 34.8 °F 26.6 °F 53% 30.17 in 10.0 mi NW 17.3 mph 24.2 mph N/A   Clear
8:55 AM 44.6 °F 37.2 °F 26.6 °F 49% 30.19 in 10.0 mi NW 17.3 mph 26.5 mph N/A   Clear
9:15 AM 44.6 °F 36.9 °F 26.6 °F 49% 30.20 in 10.0 mi NNW 18.4 mph 26.5 mph N/A   Clear
9:35 AM 46.4 °F 39.0 °F 26.6 °F 46% 30.21 in 10.0 mi NW 19.6 mph 28.8 mph N/A   Clear
9:55 AM 46.4 °F 38.5 °F 26.6 °F 46% 30.22 in 10.0 mi NW 21.9 mph 33.4 mph N/A   Clear
10:15 AM 48.2 °F - 26.6 °F 43% 30.23 in 10.0 mi NW 25.3 mph 31.1 mph N/A   Clear
10:35 AM 48.2 °F - 26.6 °F 43% 30.24 in 10.0 mi NW 23.0 mph 31.1 mph N/A   Clear
10:55 AM 48.2 °F - 28.4 °F 46% 30.25 in 10.0 mi NNW 20.7 mph 26.5 mph N/A   Clear
11:15 AM 50.0 °F - 26.6 °F 40% 30.25 in 10.0 mi NW 24.2 mph 33.4 mph N/A   Clear
11:35 AM 50.0 °F - 26.6 °F 40% 30.26 in 10.0 mi NNW 24.2 mph 32.2 mph N/A   Clear
11:55 AM 51.8 °F - 26.6 °F 38% 30.26 in 10.0 mi NW 24.2 mph 33.4 mph N/A   Clear
12:15 PM 51.8 °F - 26.6 °F 38% 30.26 in 10.0 mi NW 23.0 mph 31.1 mph N/A   Clear
12:35 PM 51.8 °F - 24.8 °F 35% 30.25 in 10.0 mi NW 27.6 mph 34.5 mph N/A   Clear
12:55 PM 51.8 °F - 26.6 °F 38% 30.25 in 10.0 mi NW 23.0 mph 29.9 mph N/A   Clear
1:15 PM 51.8 °F - 24.8 °F 35% 30.25 in 10.0 mi NNW 23.0 mph 33.4 mph N/A   Clear
1:35 PM 51.8 °F - 23.0 °F 33% 30.24 in 10.0 mi NW 23.0 mph 33.4 mph N/A   Clear
1:55 PM 53.6 °F - 21.2 °F 28% 30.25 in 10.0 mi NW 18.4 mph 32.2 mph N/A   Clear
2:15 PM 53.6 °F - 19.4 °F 26% 30.25 in 10.0 mi NNW 20.7 mph 31.1 mph N/A   Clear
2:35 PM 53.6 °F - 19.4 °F 26% 30.26 in 10.0 mi NNW 23.0 mph 31.1 mph N/A   Clear
2:55 PM 51.8 °F - 15.8 °F 24% 30.27 in 10.0 mi NNW 19.6 mph 29.9 mph N/A   Clear
3:15 PM 51.8 °F - 15.8 °F 24% 30.27 in 10.0 mi NW 19.6 mph 31.1 mph N/A   Clear
3:35 PM 51.8 °F - 14.0 °F 22% 30.28 in 10.0 mi NNW 17.3 mph 27.6 mph N/A   Clear
3:55 PM 51.8 °F - 12.2 °F 21% 30.29 in 10.0 mi NNW 13.8 mph 28.8 mph N/A   Clear
4:15 PM 51.8 °F - 12.2 °F 21% 30.29 in 10.0 mi NNW 16.1 mph - N/A   Clear
4:35 PM 51.8 °F - 12.2 °F 21% 30.30 in 10.0 mi NNW 20.7 mph 31.1 mph N/A   Clear
4:55 PM 50.0 °F - 12.2 °F 22% 30.30 in 10.0 mi NNW 11.5 mph - N/A   Clear
5:15 PM 48.2 °F - 12.2 °F 24% 30.31 in 10.0 mi NW 12.7 mph - N/A   Clear
5:35 PM 46.4 °F 41.9 °F 12.2 °F 25% 30.31 in 10.0 mi NW 9.2 mph - N/A   Clear
5:55 PM 42.8 °F 38.6 °F 15.8 °F 34% 30.33 in 10.0 mi NW 6.9 mph - N/A   Clear
6:15 PM 42.8 °F 38.0 °F 15.8 °F 34% 30.34 in 10.0 mi NW 8.1 mph - N/A   Clear
6:35 PM 42.8 °F 39.3 °F 15.8 °F 34% 30.35 in 10.0 mi NW 5.8 mph - N/A   Clear
6:55 PM 39.2 °F 37.0 °F 17.6 °F 42% 30.35 in 10.0 mi NW 3.5 mph - N/A   Clear
7:15 PM 39.2 °F 37.0 °F 17.6 °F 42% 30.36 in 10.0 mi NW 3.5 mph - N/A   Clear
7:35 PM 37.4 °F 34.9 °F 17.6 °F 45% 30.36 in 10.0 mi NNW 3.5 mph - N/A   Clear
7:55 PM 37.4 °F 32.8 °F 17.6 °F 45% 30.37 in 10.0 mi NW 5.8 mph - N/A   Clear
8:15 PM 35.6 °F 30.7 °F 19.4 °F 52% 30.37 in 10.0 mi NNW 5.8 mph - N/A   Clear
8:35 PM 35.6 °F 31.7 °F 21.2 °F 56% 30.37 in 10.0 mi NNW 4.6 mph - N/A   Clear
8:55 PM 33.8 °F 29.6 °F 21.2 °F 60% 30.37 in 10.0 mi NNW 4.6 mph - N/A   Clear
9:15 PM 33.8 °F - 23.0 °F 65% 30.37 in 10.0 mi Calm Calm - N/A   Clear
9:35 PM 32.0 °F - 21.2 °F 64% 30.38 in 10.0 mi Calm Calm - N/A   Clear
9:55 PM 30.2 °F 26.7 °F 21.2 °F 69% 30.38 in 10.0 mi North 3.5 mph - N/A   Clear
10:15 PM 30.2 °F - 21.2 °F 69% 30.39 in 10.0 mi Calm Calm - N/A   Clear
10:35 PM 30.2 °F 26.7 °F 21.2 °F 69% 30.40 in 10.0 mi North 3.5 mph - N/A   Clear
10:55 PM 30.2 °F - 23.0 °F 75% 30.40 in 10.0 mi Calm Calm - N/A   Clear
11:15 PM 30.2 °F 25.4 °F 23.0 °F 75% 30.40 in 10.0 mi NNW 4.6 mph - N/A   Clear
11:35 PM 28.4 °F 24.6 °F 21.2 °F 74% 30.40 in 10.0 mi NNW 3.5 mph - N/A   Clear
11:55 PM 28.4 °F - 24.8 °F 86% 30.40 in 10.0 mi Calm Calm - N/A   Clear